Location: Hope
(40.9110°N, 74.9680°W)
Time: 22:01:03
(UTC-05:00)

OTV 5 (USA 277) - Visible Passes

Search period start: 16 November 2018 00:00
Search period end: 26 November 2018 00:00
Orbit: 339 x 348 km, 54.5° (Epoch: 14 November)

Date Brightness Start Highest point End Pass type
(mag) Time Alt. Az. Time Alt. Az. Time Alt. Az.
16 Nov ? 17:19:53 10° WNW 17:22:13 23° SW 17:24:33 10° S visible
23 Nov ? 05:49:20 10° SE 05:50:10 11° SE 05:51:00 10° ESE visible
24 Nov ? 06:10:43 10° SSW 06:13:24 36° SE 06:16:06 10° ENE visible
25 Nov ? 05:01:51 10° SE 05:02:20 10° SE 05:02:49 10° ESE visible
